This demonstration page uses our WeatherBlox Daily Observations layout. Learn more.

Hourly Observations for August 13, 2016

Temp ( °F °C ) Dew Point ( °F °C ) Humidity (%) Winds ( mph kmh ) Pressure ( in mb ) Visibility ( mi km ) Precip ( " mm )
12:15 am 00:15 Clear 64 18 62 16.6 92 92 Calm 30 1016 10 16.09344 0 0
12:35 am 00:35 Clear 63 17.3 61 16 92 92 Calm 30 1016 7 11.265408 0 0
12:55 am 00:55 Clear 63 17.4 61 16.1 92 92 Calm 30 1016 10 16.09344 0 0
1:15 am 01:15 Clear 62 16.8 60 15.6 93 93 Calm 30.03 1017 10 16.09344 0 0
1:35 am 01:35 Clear 62 16.8 60 15.7 93 93 Calm 30.03 1017 10 16.09344 0 0
1:55 am 01:55 Clear 62 16.6 60 15.6 94 94 Calm 30.03 1017 10 16.09344 0 0
2:15 am 02:15 Clear 62 16.4 60 15.3 93 93 Calm 30.03 1017 10 16.09344 0 0
2:35 am 02:35 Clear 61 16 59 15 94 94 Calm 30.03 1017 10 16.09344 0 0
2:55 am 02:55 Clear 61 15.9 59 14.8 93 93 Calm 30.03 1017 10 16.09344 0 0
3:15 am 03:15 Clear 60 15.8 58 14.5 92 92 Calm 30.03 1017 10 16.09344 0 0
3:35 am 03:35 Clear 60 15.8 59 15 95 95 Calm 30.03 1017 10 16.09344 0 0
3:55 am 03:55 Clear 59 15.2 58 14.2 94 94 Calm 30.03 1017 10 16.09344 0 0
4:15 am 04:15 Clear 59 14.8 57 14 95 95 Calm 30.03 1017 10 16.09344 0 0
4:35 am 04:35 Clear 59 15 58 14.2 95 95 Calm 30.03 1017 10 16.09344 0 0
4:55 am 04:55 Clear 59 15 57 14.1 94 94 Calm 30.03 1017 10 16.09344 0 0
5:15 am 05:15 Clear 59 15 57 14.1 94 94 Calm 30.03 1017 10 16.09344 0 0
5:35 am 05:35 Clear 58 14.7 57 13.9 95 95 Calm 30.03 1017 10 16.09344 0 0
5:55 am 05:55 Clear 58 14.5 56 13.5 94 94 NW 5 7 30.03 1017 10 16.09344 0 0
6:15 am 06:15 Clear 58 14.4 56 13.5 94 94 NW 5 7 30.03 1017 10 16.09344 0 0
6:35 am 06:35 Clear 58 14.6 56 13.6 94 94 NW 3 6 30.03 1017 10 16.09344 0 0
6:55 am 06:55 Sunny 58 14.5 56 13.4 93 93 NW 5 7 30.03 1017 10 16.09344 0 0
7:15 am 07:15 Sunny 58 14.5 56 13.5 94 94 WNW 5 7 30.03 1017 10 16.09344 0 0
7:35 am 07:35 Sunny 60 15.4 57 14.1 92 92 NW 6 9 30.03 1017 10 16.09344 0 0
7:55 am 07:55 Sunny 61 16.1 58 14.5 90 90 WNW 6 9 30.03 1017 10 16.09344 0 0
8:15 am 08:15 Sunny 63 17 59 14.9 88 88 WNW 7 11 30.03 1017 10 16.09344 0 0
8:35 am 08:35 Sunny 64 17.7 60 15.3 86 86 WNW 6 9 30.03 1017 10 16.09344 0 0
8:55 am 08:55 Sunny 65 18.6 60 15.6 83 83 WNW 8 13 30.03 1017 10 16.09344 0 0
9:15 am 09:15 Sunny 67 19.5 61 15.9 80 80 NW 8 13 30.03 1017 10 16.09344 0 0
9:35 am 09:35 Sunny 69 20.5 61 16.1 76 76 NW 7 11 30.03 1017 10 16.09344 0 0
9:55 am 09:55 Sunny 71 21.6 63 17.2 76 76 N 5 7 30 1016 10 16.09344 0 0
10:15 am 10:15 Sunny 74 23.2 61 16.1 64 64 N 5 7 30 1016 10 16.09344 0 0
10:35 am 10:35 Sunny 75 23.9 61 15.9 61 61 Calm 30 1016 10 16.09344 0 0
10:55 am 10:55 Sunny 76 24.6 61 15.9 58 58 N 3 6 29.97 1015 10 16.09344 0 0
11:15 am 11:15 Sunny 78 25.4 60 15.8 55 55 N 3 6 29.97 1015 10 16.09344 0 0
11:35 am 11:35 Sunny 79 26.1 60 15.7 53 53 Calm 29.97 1015 10 16.09344 0 0
11:55 am 11:55 Sunny 80 26.9 60 15.4 49 49 NE 3 6 29.97 1015 10 16.09344 0 0
12:15 pm 12:15 Sunny 81 27.2 58 14.4 45 45 N 3 6 29.97 1015 10 16.09344 0 0
12:35 pm 12:35 Sunny 82 27.5 57 14 44 44 N 3 6 29.97 1015 10 16.09344 0 0
12:55 pm 12:55 Sunny 82 28 58 14.5 44 44 E 3 6 29.94 1014 10 16.09344 0 0
1:15 pm 13:15 Sunny 83 28.1 57 13.9 42 42 E 5 7 29.94 1014 10 16.09344 0 0
1:35 pm 13:35 Sunny 83 28.2 57 14.1 42 42 ENE 6 9 29.91 1013 10 16.09344 0 0
1:55 pm 13:55 Sunny 84 28.9 60 15.6 44 44 NE 6 9 29.91 1013 10 16.09344 0 0
2:15 pm 14:15 Sunny 83 28.6 59 15 44 44 ESE 6 9 29.91 1013 10 16.09344 0 0
2:35 pm 14:35 Sunny 84 29 59 14.8 42 42 NE 5 7 29.91 1013 10 16.09344 0 0
2:55 pm 14:55 Sunny 84 29 58 14.3 41 41 ESE 3 6 29.91 1013 10 16.09344 0 0
3:15 pm 15:15 Sunny 85 29.4 59 15.2 42 42 ENE 5 7 29.91 1013 10 16.09344 0 0
3:35 pm 15:35 Sunny 84 29.1 57 13.7 39 39 E 5 7 29.88 1012 10 16.09344 0 0
3:55 pm 15:55 Sunny 85 29.3 57 13.8 39 39 E 6 9 29.88 1012 10 16.09344 0 0
4:15 pm 16:15 Sunny 85 29.6 58 14.6 40 40 NE 6 9 29.88 1012 10 16.09344 0 0
4:35 pm 16:35 Sunny 84 28.8 57 13.8 40 40 ENE 7 11 29.88 1012 10 16.09344 0 0
4:55 pm 16:55 Sunny 84 29 59 14.8 42 42 E 7 11 29.88 1012 10 16.09344 0 0
5:15 pm 17:15 Sunny 83 28.5 59 15 44 44 E 7 11 29.88 1012 10 16.09344 0 0
5:35 pm 17:35 Sunny 81 27.3 60 15.6 49 49 E 5 7 29.88 1012 10 16.09344 0 0
5:55 pm 17:55 Sunny 81 27 60 15.8 50 50 E 5 7 29.91 1013 10 16.09344 0 0
6:15 pm 18:15 Sunny 80 26.5 62 16.8 55 55 E 7 11 29.91 1013 10 16.09344 0 0
6:35 pm 18:35 Partly Cloudy 82 27.5 61 16.3 50 50 E 7 11 29.88 1012 10 16.09344 0 0
6:55 pm 18:55 Mostly Cloudy 81 27 62 16.6 53 53 E 7 11 29.91 1013 10 16.09344 0 0
7:15 pm 19:15 Partly Cloudy with Thunderstorms 78 25.6 65 18.2 64 64 ENE 6 9 29.91 1013 10 16.09344 0 0
7:35 pm 19:35 Partly Cloudy 74 23.5 67 19.4 78 78 ENE 8 13 29.94 1014 10 16.09344 0.01 0.254
7:55 pm 19:55 Sunny 75 23.7 66 19 75 75 E 6 9 29.91 1013 10 16.09344 0.01 0.254
8:15 pm 20:15 Sunny 74 23.4 66 18.7 75 75 E 6 9 29.94 1014 10 16.09344 0 0
8:35 pm 20:35 Sunny 73 22.6 66 19.1 81 81 E 6 9 29.94 1014 10 16.09344 0 0
8:55 pm 20:55 Clear 72 22.3 66 19 82 82 ENE 5 7 29.94 1014 10 16.09344 0 0
9:15 pm 21:15 Clear 72 22 67 19.2 84 84 E 3 6 29.97 1015 10 16.09344 0 0
9:35 pm 21:35 Hazy 71 21.5 66 18.7 84 84 ENE 5 7 29.97 1015 4 6.437376 0 0
9:55 pm 21:55 Clear with Heavy Rain 70 21 65 18.4 85 85 NE 5 7 30 1016 10 16.09344 0 0
10:15 pm 22:15 Partly Cloudy 71 21.5 64 17.9 80 80 SSW 3 6 30 1016 10 16.09344 0 0
10:35 pm 22:35 Clear 73 22.8 62 16.5 68 68 Calm 30 1016 10 16.09344 0 0
10:55 pm 22:55 Clear 71 21.7 62 16.5 72 72 W 3 6 30 1016 10 16.09344 0 0
11:15 pm 23:15 Mostly Cloudy with Nearby Thunderstorms 70 21 63 17.3 80 80 N 8 13 30.06 1018 10 16.09344 0 0
11:35 pm 23:35 Cloudy with Heavy Thunderstorms 63 17.3 57 13.8 80 80 NNE 23 37 30.12 1020 2.5 4.02336 0.13 3.302
11:55 pm 23:55 Cloudy with Heavy Thunderstorms 62 16.9 54 12.2 74 74 N 8 13 30.09 1019 1 1.609344 0.97 24.638

Powered by AerisWeather